Jefferson, NC

11:30 AM EST on December 09, 2019 (GMT -0500)
Ashe County

Weather History for KGEV - August, 2019

Change the Weather History Date:

Tuesday, August 13, 2019

  Actual Average Record
Temperature  
Mean Temperature 73 °F -  
Max Temperature 81 °F 78 °F 88 °F (1988)
Min Temperature 65 °F 55 °F 46 °F (1979)
Cooling Degree Days 8    
Growing Degree Days 23 (Base 50)    
Moisture  
Dew Point 66 °F    
Average Humidity 81    
Maximum Humidity 96    
Minimum Humidity 63    
Precipitation  
Precipitation 0.37 in - - ()
Sea Level Pressure  
Sea Level Pressure 30.03 in    
Wind  
Wind Speed 4 mph ()    
Max Wind Speed 29 mph    
Max Gust Speed 39 mph    
Visibility 9.9 miles    
Events Rain , Thunderstorm    
Averages and records for this station are not official NWS values.
T = Trace of Precipitation, MM = Missing Value Source: Averaged Metar Reports

Daily Weather History Graph

Daily Weather History Graph

Search for Another Location

Airport or City:

Astronomy

Aug. 13, 2019 Rise Set
Actual Time 6:41 AM EDT 8:18 PM EDT
Civil Twilight 6:14 AM EDT 8:46 PM EDT
Nautical Twilight 5:40 AM EDT 9:19 PM EDT
Astronomical Twilight 5:05 AM EDT 9:54 PM EDT
Moon 7:29 PM EDT (8/13) 4:46 AM EDT (8/13)
Length of Visible Light 14h 32m
Length of Day
13h 37m
Waxing Gibbous, 97% of the Moon is Illuminated
Aug 13
Waxing Gibbous
Aug 15
Full
Aug 23
Last Quarter
Aug 30
New
Sep 5
First Quarter

Hourly Weather History & Observations

Time (EDT) Temp. Heat Index Dew Point Humidity Pressure Visibility Wind Dir Wind Speed Gust Speed Precip Events Conditions
12:15 AM 70.7 °F - 68.2 °F 92% 30.09 in 10.0 mi Calm Calm - N/A   Overcast
12:35 AM 70.7 °F - 68.0 °F 91% 30.09 in 10.0 mi Calm Calm - N/A   Overcast
12:55 AM 70.2 °F - 67.6 °F 92% 30.08 in 10.0 mi Calm Calm - N/A   Overcast
1:15 AM 70.0 °F - 68.0 °F 93% 30.08 in 10.0 mi Calm Calm - N/A   Overcast
1:35 AM 70.3 °F - 67.6 °F 91% 30.08 in 10.0 mi Calm Calm - N/A   Overcast
1:55 AM 70.0 °F - 67.6 °F 92% 30.08 in 10.0 mi Calm Calm - N/A   Overcast
2:15 AM 70.7 °F - 67.6 °F 90% 30.07 in 10.0 mi Calm Calm - N/A   Overcast
2:35 AM 70.5 °F - 67.5 °F 90% 30.06 in 10.0 mi Calm Calm - N/A   Scattered Clouds
2:55 AM 71.2 °F - 67.3 °F 87% 30.06 in 10.0 mi Calm Calm - N/A   Scattered Clouds
3:15 AM 70.2 °F - 67.1 °F 90% 30.06 in 10.0 mi Calm Calm - N/A   Scattered Clouds
3:35 AM 70.7 °F - 67.3 °F 89% 30.05 in 10.0 mi Calm Calm - N/A   Scattered Clouds
3:55 AM 69.8 °F - 67.1 °F 91% 30.04 in 10.0 mi Calm Calm - N/A   Clear
4:15 AM 69.1 °F - 67.1 °F 93% 30.04 in 10.0 mi Calm Calm - N/A   Scattered Clouds
4:35 AM 68.9 °F - 67.1 °F 94% 30.03 in 10.0 mi Calm Calm - N/A   Scattered Clouds
4:55 AM 69.1 °F - 67.1 °F 93% 30.03 in 10.0 mi Calm Calm - N/A   Mostly Cloudy
5:15 AM 69.1 °F - 67.1 °F 93% 30.03 in 10.0 mi Calm Calm - N/A   Overcast
5:35 AM 69.1 °F - 67.1 °F 93% 30.03 in 10.0 mi Calm Calm - N/A   Mostly Cloudy
6:15 AM 68.5 °F - 67.1 °F 95% 30.04 in 10.0 mi Calm Calm - N/A   Mostly Cloudy
6:35 AM 68.7 °F - 66.9 °F 94% 30.04 in 10.0 mi Calm Calm - N/A   Mostly Cloudy
6:55 AM 67.8 °F - 66.6 °F 96% 30.03 in 7.0 mi Calm Calm - N/A   Scattered Clouds
7:15 AM 71.1 °F - 66.9 °F 87% 30.03 in 10.0 mi Calm Calm - N/A   Scattered Clouds
7:35 AM 72.3 °F - 67.1 °F 84% 30.03 in 10.0 mi Calm Calm - N/A   Mostly Cloudy
7:55 AM 73.2 °F - 67.1 °F 81% 30.04 in 10.0 mi West 8.1 mph - N/A   Mostly Cloudy
8:15 AM 75.2 °F - 67.1 °F 76% 30.04 in 10.0 mi West 10.4 mph - N/A   Mostly Cloudy
8:35 AM 74.5 °F - 67.3 °F 78% 30.04 in 10.0 mi West 16.1 mph 20.7 mph N/A   Scattered Clouds
8:55 AM 75.7 °F - 67.5 °F 75% 30.03 in 10.0 mi West 9.2 mph 18.4 mph N/A   Scattered Clouds
9:15 AM 76.1 °F - 67.8 °F 75% 30.03 in 10.0 mi West 11.5 mph 16.1 mph N/A   Scattered Clouds
9:35 AM 76.8 °F - 67.5 °F 73% 30.03 in 10.0 mi West 8.1 mph 20.7 mph N/A   Mostly Cloudy
9:55 AM 76.6 °F - 66.7 °F 71% 30.04 in 10.0 mi West 9.2 mph 17.3 mph N/A   Overcast
10:15 AM 75.7 °F - 66.6 °F 73% 30.05 in 10.0 mi WSW 8.1 mph - N/A   Overcast
10:35 AM 76.3 °F - 66.6 °F 72% 30.06 in 10.0 mi West 11.5 mph 16.1 mph N/A   Overcast
10:55 AM 76.5 °F - 67.1 °F 73% 30.07 in 10.0 mi West 5.8 mph - N/A   Overcast
11:15 AM 77.2 °F - 67.1 °F 71% 30.06 in 10.0 mi WNW 15.0 mph 18.4 mph N/A   Mostly Cloudy
11:35 AM 77.2 °F - 67.5 °F 72% 30.06 in 10.0 mi West 3.5 mph - N/A   Mostly Cloudy
11:55 AM 79.3 °F - 68.2 °F 69% 30.05 in 10.0 mi WSW 10.4 mph - N/A   Scattered Clouds
12:15 PM 79.3 °F - 67.5 °F 67% 30.05 in 10.0 mi West 6.9 mph - N/A   Scattered Clouds
12:35 PM 80.4 °F 83.0 °F 67.8 °F 65% 30.05 in 10.0 mi West 4.6 mph 18.4 mph N/A   Mostly Cloudy
12:55 PM 80.4 °F 83.0 °F 67.5 °F 65% 30.05 in 10.0 mi NW 8.1 mph - N/A   Scattered Clouds
1:35 PM 81.5 °F 84.2 °F 67.8 °F 63% 30.04 in 10.0 mi West 10.4 mph - N/A   Mostly Cloudy
1:55 PM 81.5 °F 84.2 °F 67.6 °F 63% 30.04 in 10.0 mi WSW 8.1 mph - N/A   Mostly Cloudy
2:15 PM 81.9 °F 84.8 °F 68.0 °F 63% 30.03 in 10.0 mi WNW 10.4 mph - N/A   Scattered Clouds
2:35 PM 76.3 °F - 65.3 °F 69% 30.08 in 10.0 mi WNW 28.8 mph 39.1 mph 0.05 in Rain , Thunderstorm Heavy Thunderstorms and Rain
2:55 PM 67.5 °F - 64.4 °F 90% 30.06 in 5.0 mi WNW 9.2 mph 17.3 mph 0.36 in Rain , Thunderstorm Thunderstorms and Rain
3:15 PM 65.8 °F - 64.0 °F 94% 30.03 in 10.0 mi West 5.8 mph - 0.01 in Rain , Thunderstorm Light Thunderstorms and Rain
3:55 PM 68.4 °F - 63.9 °F 85% 29.99 in 10.0 mi WNW 8.1 mph 21.9 mph 0.01 in   Clear
4:15 PM 68.2 °F - 64.6 °F 88% 29.97 in 10.0 mi WSW 4.6 mph - N/A   Clear
4:35 PM 68.0 °F - 66.7 °F 96% 29.98 in 10.0 mi Calm Calm - N/A   Clear
4:55 PM 69.8 °F - 64.9 °F 84% 29.99 in 10.0 mi WSW 4.6 mph - N/A   Clear
5:15 PM 70.7 °F - 65.7 °F 84% 29.99 in 10.0 mi WSW 3.5 mph - N/A   Clear
5:35 PM 72.5 °F - 65.8 °F 80% 29.98 in 10.0 mi WSW 4.6 mph - N/A   Clear
5:55 PM 75.0 °F - 65.5 °F 72% 29.97 in 10.0 mi WNW 11.5 mph 16.1 mph N/A   Clear
6:15 PM 74.5 °F - 65.3 °F 73% 29.97 in 10.0 mi West 13.8 mph - N/A   Clear
6:35 PM 74.1 °F - 65.5 °F 74% 29.98 in 10.0 mi West 10.4 mph - N/A   Clear
6:55 PM 73.4 °F - 66.2 °F 78% 30.00 in 10.0 mi West 11.5 mph - N/A   Clear
7:15 PM 73.4 °F - 64.6 °F 74% 30.00 in 10.0 mi West 12.7 mph - N/A   Clear
7:35 PM 73.4 °F - 64.2 °F 73% 30.01 in 10.0 mi West 12.7 mph - N/A   Clear
7:55 PM 73.6 °F - 63.0 °F 69% 30.01 in 10.0 mi West 12.7 mph - N/A   Clear
8:15 PM 73.8 °F - 62.1 °F 67% 30.01 in 10.0 mi WNW 12.7 mph 17.3 mph N/A   Clear
8:35 PM 73.8 °F - 61.9 °F 66% 30.00 in 10.0 mi WNW 20.7 mph 25.3 mph N/A   Clear
8:55 PM 73.6 °F - 63.1 °F 70% 30.01 in 10.0 mi WNW 18.4 mph 24.2 mph N/A   Clear
9:15 PM 73.2 °F - 63.9 °F 72% 30.02 in 10.0 mi West 11.5 mph - N/A   Clear
9:35 PM 72.5 °F - 64.6 °F 76% 30.02 in 10.0 mi West 9.2 mph - N/A   Clear
9:55 PM 72.1 °F - 64.8 °F 78% 30.03 in 10.0 mi West 5.8 mph - N/A   Scattered Clouds
10:15 PM 72.1 °F - 64.4 °F 77% 30.02 in 10.0 mi West 5.8 mph - N/A   Overcast
10:35 PM 72.0 °F - 65.3 °F 79% 30.03 in 10.0 mi West 6.9 mph - N/A   Overcast
10:55 PM 70.9 °F - 65.5 °F 83% 30.03 in 10.0 mi Calm Calm - N/A Rain Light Rain
11:15 PM 70.0 °F - 65.7 °F 86% 30.03 in 10.0 mi West 5.8 mph - N/A Rain Rain
11:35 PM 69.8 °F - 65.5 °F 86% 30.03 in 10.0 mi West 4.6 mph - N/A   Overcast
11:55 PM 68.9 °F - 65.7 °F 89% 30.02 in 10.0 mi West 4.6 mph - N/A   Scattered Clouds